Home > Weather > Boké > Past weeks

Flag for Guinea Weather for the Past 2 Weeks in Boké, Guinea

Now
82 °F

Scattered clouds.


Feels Like: 88 °F
Forecast: N/A
Wind: 9 mph from West

Location: Conakry / Gbessia

Current Time: May 6, 2016 at 7:33:26 PM

Latest Report: May 6, 2016 at 7:00 PM


Visibility: N/A

Pressure: 29.89 "Hg

Humidity: 74%

Dew Point: 73 °F

Location of BokéLocation

Historic Weather in Boké — Graph

°F

Boké Temperature Yesterday

Maximum temperature yesterday: 91 °F (at 1:00 PM)
Minimum temperature yesterday: 79 °F (at 3:00 AM)
Average temperature yesterday: 84 °F

High & Low Weather Summary for the Past Weeks

 TemperatureHumidityPressure
High93 °F (Apr 24, 2:00 PM)100% (Apr 24, 6:00 AM)30.01 "Hg (Apr 24, 6:00 AM)
Low73 °F (May 4, 5:00 AM)28% (May 2, 3:00 PM)29.71 "Hg (Apr 24, 5:00 PM)
Average83 °F77%29.85 "Hg
* Reported Apr 21 9:00 PM — May 6 6:00 PM, Boké, Weather by CustomWeather, © 2016

Note: Actual official high and low records may vary slightly from our data, if they occured in-between our weather recording intervals... More about our weather records

Advertising

Boké Weather History for the Previous 24 Hours

Scroll right to see more
 ConditionsComfort  
Time TempWeatherWind HumidityBarometerVisibility
6:00 PM
Fri, May 6
84 °FScattered clouds.12 mph74%29.86 "HgN/A
5:00 PM86 °FScattered clouds.12 mph66%29.86 "HgN/A
4:00 PM86 °FPassing clouds.9 mph70%29.86 "HgN/A
3:00 PM86 °FPassing clouds.14 mph79%29.89 "HgN/A
2:00 PM86 °FPassing clouds.9 mph79%29.92 "HgN/A
1:00 PM84 °FPassing clouds.7 mph84%29.95 "HgN/A
12:00 PM82 °FScattered clouds.7 mph89%29.95 "HgN/A
11:00 AM82 °FBroken clouds.5 mph89%29.98 "HgN/A
9:00 AM79 °FSmoke.1 mph89%29.86 "HgN/A
8:00 AM77 °FSmoke.1 mph94%29.92 "HgN/A
7:00 AM75 °FPartly sunny.2 mph94%29.92 "HgN/A
6:00 AM77 °FPartly cloudy.5 mph94%29.89 "HgN/A
5:00 AM75 °FLight rain. Partly cloudy.5 mph94%29.89 "Hg5 mi
4:00 AM75 °FLight rain. Mostly cloudy.7 mph100%29.89 "Hg5 mi
3:00 AM75 °FThunderstorms. Mostly cloudy.12 mph94%29.92 "Hg5 mi
2:00 AM77 °FThunderstorms. Mostly cloudy.14 mph89%29.95 "Hg5 mi
1:00 AM79 °FThunderstorms. Partly cloudy.5 mph89%30.01 "Hg3 mi
12:00 AM81 °FPassing clouds.5 mph79%29.98 "HgN/A
11:00 PM
Thu, May 5
81 °FClear.2 mph79%29.98 "Hg10 mi
10:00 PM81 °FClear.7 mph74%29.95 "Hg10 mi
9:00 PM81 °FClear.5 mph74%29.92 "Hg10 mi
8:00 PM82 °FPassing clouds.9 mph70%29.89 "HgN/A
7:00 PM82 °FScattered clouds.9 mph66%29.83 "HgN/A
Weather by CustomWeather, © 2016

See weather overviewHow to use our weather pages